Weather History for KCMA - October, 2013

Change the Weather History Date:

Saturday, October 26, 2013

  Actual Average Record
Temperature  
Mean Temperature 59 °F 62 °F  
Max Temperature 71 °F 73 °F 93 °F (1983)
Min Temperature 47 °F 51 °F 40 °F (1954)
Degree Days  
Heating Degree Days 6 4  
Month to date heating degree days 74 71  
Since 1 July heating degree days 79 103  
Cooling Degree Days 0 1  
Month to date cooling degree days 41 26  
Year to date cooling degree days 623 309  
Growing Degree Days 9 (Base 50)    
Moisture  
Dew Point 53 °F    
Average Humidity 79    
Maximum Humidity 100    
Minimum Humidity 57    
Precipitation  
Precipitation 0.00 in 0.04 in 1.02 in (2004)
Month to date precipitation T 0.46  
Year to date precipitation 2.19 11.68  
Since 1 July precipitation 0.04 0.70  
Sea Level Pressure  
Sea Level Pressure 30.05 in    
Wind  
Wind Speed 3 mph (North)    
Max Wind Speed 10 mph    
Max Gust Speed 14 mph    
Visibility 5 miles    
Events Fog    
T = Trace of Precipitation, MM = Missing Value Source: NWS Daily Summary

Daily Weather History Graph

Daily Weather History Graph

Search for Another Location

Airport or City:

Trip Planner

Search our weather history database for the weather conditions in past years. The results will help you decide how hot, cold, wet, or windy it might be!

Date:

Astronomy

Oct. 26, 2013 Rise Set
Actual Time 7:11 AM PDT 6:08 PM PDT
Civil Twilight 6:45 AM PDT 6:34 PM PDT
Nautical Twilight 6:16 AM PDT 7:03 PM PDT
Astronomical Twilight 5:46 AM PDT 7:33 PM PDT
Moon No Moon Rise 1:27 PM PDT (10/26)
Length of Visible Light 11h 49m
Length of Day
10h 57m
Waning Gibbous, 52% of the Moon is Illuminated
Oct 26
Waning Gibbous
Oct 26
Last Quarter
Nov 3
New
Nov 9
First Quarter
Nov 17
Full

Hourly Weather History & Observations

Time (PDT) Temp. Dew Point Humidity Pressure Visibility Wind Dir Wind Speed Gust Speed Precip Events Conditions
12:03 AM 55.4 °F 53.6 °F 94% 30.06 in 5.0 mi ENE 4.6 mph - N/A   Mostly Cloudy
12:12 AM 57.2 °F 53.6 °F 88% 30.06 in 5.0 mi ENE 5.8 mph - N/A   Overcast
12:26 AM 57.2 °F 55.4 °F 94% 30.06 in 4.0 mi NE 3.5 mph - N/A   Overcast
12:40 AM 57.2 °F 55.4 °F 94% 30.07 in 2.5 mi Calm Calm - N/A   Overcast
12:55 AM 57.0 °F 55.0 °F 93% 30.09 in 2.5 mi Calm Calm - N/A   Overcast
1:09 AM 55.4 °F 53.6 °F 94% 30.06 in 1.5 mi NNW 4.6 mph - N/A   Overcast
1:19 AM 55.4 °F 53.6 °F 94% 30.07 in 0.5 mi Calm Calm - N/A Fog Fog
1:55 AM 55.0 °F 54.0 °F 96% 30.09 in 0.2 mi Calm Calm - N/A Fog Fog
2:55 AM 54.0 °F 53.1 °F 97% 30.10 in 0.2 mi Calm Calm - N/A Fog Fog
3:55 AM 52.0 °F 52.0 °F 100% 30.09 in 0.2 mi Calm Calm - N/A Fog Fog
4:55 AM 52.0 °F 51.1 °F 97% 30.09 in 0.2 mi East 4.6 mph - 0.01 in Fog Fog
5:21 AM 50.0 °F 50.0 °F 100% 30.06 in 1.8 mi ENE 4.6 mph - N/A   Overcast
5:25 AM 50.0 °F 50.0 °F 100% 30.06 in 3.0 mi ENE 3.5 mph - N/A   Mostly Cloudy
5:34 AM 50.0 °F 48.2 °F 94% 30.06 in 4.0 mi Calm Calm - N/A   Scattered Clouds
5:55 AM 50.0 °F 48.9 °F 96% 30.09 in 5.0 mi Calm Calm - N/A   Clear
6:05 AM 48.2 °F 48.2 °F 100% 30.06 in 1.0 mi Calm Calm - N/A   Mist
6:12 AM 48.2 °F 48.2 °F 100% 30.06 in 0.2 mi Calm Calm - N/A Fog Fog
6:25 AM 48.2 °F 48.2 °F 100% 30.06 in 0.2 mi Calm Calm - N/A Fog Fog
6:32 AM 48.2 °F 48.2 °F 100% 30.07 in 0.2 mi Calm Calm - N/A Fog Fog
6:47 AM 48.2 °F 46.4 °F 93% 30.07 in 1.8 mi Calm Calm - N/A   Mostly Cloudy
6:49 AM 48.2 °F 46.4 °F 93% 30.07 in 3.0 mi Calm Calm - N/A   Mostly Cloudy
6:55 AM 48.0 °F 46.9 °F 96% 30.10 in 3.0 mi Calm Calm - N/A   Scattered Clouds
7:55 AM 50.0 °F 48.9 °F 96% 30.11 in 4.0 mi East 5.8 mph - N/A   Clear
8:55 AM 57.0 °F 50.0 °F 77% 30.12 in 5.0 mi NE 3.5 mph - N/A   Haze
9:55 AM 63.0 °F 54.0 °F 72% 30.11 in 6.0 mi Variable 4.6 mph - N/A   Haze
10:55 AM 69.1 °F 55.0 °F 61% 30.10 in 6.0 mi SW 3.5 mph - N/A   Haze
11:55 AM 70.0 °F 57.0 °F 63% 30.09 in 6.0 mi SW 9.2 mph - N/A   Haze
12:55 PM 69.1 °F 54.0 °F 58% 30.07 in 8.0 mi WSW 6.9 mph - N/A   Clear
1:55 PM 68.0 °F 55.9 °F 65% 30.04 in 9.0 mi West 6.9 mph - N/A   Clear
2:55 PM 68.0 °F 55.9 °F 65% 30.03 in 9.0 mi WSW 8.1 mph - N/A   Clear
3:55 PM 69.1 °F 57.0 °F 65% 30.02 in 8.0 mi West 9.2 mph - N/A   Clear
4:55 PM 66.9 °F 55.9 °F 68% 30.01 in 10.0 mi Calm Calm - N/A   Clear
5:55 PM 66.0 °F 55.9 °F 70% 30.00 in 10.0 mi Calm Calm - N/A   Clear
6:55 PM 61.0 °F 55.9 °F 83% 30.00 in 9.0 mi WNW 6.9 mph - N/A   Clear
7:30 PM 60.8 °F 57.2 °F 88% 29.97 in 9.0 mi WNW 5.8 mph - N/A   Scattered Clouds
7:55 PM 60.1 °F 55.9 °F 86% 30.00 in 9.0 mi WNW 3.5 mph - N/A   Scattered Clouds
8:55 PM 60.1 °F 57.0 °F 90% 30.00 in 8.0 mi NW 4.6 mph - N/A   Scattered Clouds
9:02 PM 60.8 °F 57.2 °F 88% 29.98 in 7.0 mi NW 3.5 mph - N/A   Overcast
9:50 PM 60.8 °F 55.4 °F 82% 29.99 in 8.0 mi Calm Calm - N/A   Scattered Clouds
9:55 PM 57.9 °F 55.0 °F 90% 30.01 in 8.0 mi Calm Calm - N/A   Partly Cloudy
10:50 PM 55.4 °F 53.6 °F 94% 29.98 in 6.0 mi ENE 4.6 mph - N/A   Mostly Cloudy
10:55 PM 55.9 °F 53.1 °F 90% 30.01 in 6.0 mi NE 3.5 mph - N/A   Mostly Cloudy
11:04 PM 55.4 °F 51.8 °F 88% 29.98 in 7.0 mi NE 5.8 mph - N/A   Scattered Clouds
11:55 PM 53.1 °F 50.0 °F 89% 30.01 in 7.0 mi WNW 3.5 mph - N/A   Partly Cloudy